RH
76 78 78 80 77 81 76 77 75 75 75 74 77 77 78 78 78 78 78 80 79 79 81 81 82 84 86 52 24 11 51 72 52 21 14 14 18 21 23 22 20 32 34 31 34 39 39
81 76 76 76 80 76 83 84 82 79 79 76 77 77 78 78 78 80 80 80 82 80 82 81 81 84 79 20 8 21 29 28 23 14 14 13 16 18 21 22 27 22 25 25 25 28 35
84 82 81 82 83 83 81 79 81 80 80 77 77 77 78 78 79 80 81 84 84 81 80 81 81 75 72 16 19 22 19 27 19 15 13 13 13 19 20 23 21 22 27 26 25 29 41
85 83 82 83 78 80 81 78 78 79 78 82 78 78 78 78 79 82 86 87 86 83 82 81 81 87 30 21 29 29 20 17 18 18 14 13 15 21 23 20 22 26 29 33 27 28 42
87 87 87 85 84 86 86 84 78 79 78 78 79 80 78 79 80 88 91 88 85 82 81 80 93 80 25 31 27 22 16 15 22 21 20 10 17 22 24 30 34 33 38 35 28 28 40
89 89 87 85 81 79 81 84 84 78 78 79 79 80 79 78 80 90 92 86 79 82 82 66 58 56 30 17 20 14 18 12 16 20 17 17 25 30 32 32 40 39 35 29 31 31 34
88 87 86 87 80 80 79 79 83 80 78 78 83 83 78 78 80 92 94 84 52 55 75 36 32 32 23 18 17 12 11 10 14 18 22 26 29 30 27 28 26 28 33 30 27 28 37
86 87 88 90 86 88 87 80 79 83 82 78 80 82 85 78 79 93 97 80 48 44 40 39 35 33 27 22 22 12 9 11 16 19 24 26 31 23 23 24 26 28 30 27 26 23 30
88 88 88 88 89 87 87 87 80 80 86 87 78 81 86 81 83 93 94 66 48 31 47 33 40 34 29 23 23 21 8 12 17 20 25 27 24 19 21 22 24 24 29 29 29 32 43
90 89 90 89 88 87 87 86 81 80 80 81 88 85 88 89 90 93 80 61 48 38 50 32 41 29 26 21 20 14 8 10 18 16 23 25 20 20 22 23 25 31 21 21 25 34 46
85 87 88 88 87 86 82 84 85 80 84 83 88 91 92 91 92 92 58 73 58 37 23 19 35 23 25 16 13 10 9 11 15 17 22 23 23 23 22 20 21 24 20 19 24 32 40
87 88 87 85 82 82 84 81 83 83 82 88 91 93 94 92 86 89 79 75 41 41 29 29 26 27 25 22 14 11 10 12 12 16 20 19 17 19 20 17 18 18 21 22 31 34 50
87 89 89 85 82 82 84 86 82 82 85 89 93 95 96 74 78 81 81 45 49 57 24 27 31 26 25 23 20 12 13 15 17 20 22 15 14 13 14 17 18 20 26 34 35 37 43
87 89 87 87 85 82 86 82 82 82 86 90 92 96 90 81 94 90 52 44 61 28 35 22 24 24 22 14 16 13 15 16 20 20 24 20 19 15 13 14 15 20 23 31 36 44 52
87 87 88 89 87 82 86 87 82 83 87 87 95 93 99 95 86 93 41 59 46 41 25 25 22 29 28 19 14 13 14 16 14 18 19 27 22 14 14 15 16 23 27 26 44 67 63
81 87 86 88 88 82 86 83 82 83 84 90 96 95 83 82 76 63 47 62 49 34 24 26 33 27 28 22 16 14 15 13 14 15 16 24 23 17 13 14 17 19 22 34 43 55 65
80 85 88 87 89 82 82 83 85 88 89 93 95 67 59 77 61 49 55 57 42 29 21 26 28 29 23 18 16 14 12 12 11 15 16 20 23 18 15 17 14 18 32 41 42 49 55
84 85 87 88 88 82 82 82 86 90 93 93 97 69 58 61 46 78 61 49 42 28 21 20 26 26 32 22 25 16 12 9 11 15 17 18 22 22 17 14 14 18 19 34 36 44 67
85 84 81 82 85 83 82 82 84 88 91 97 86 74 48 41 50 57 52 37 32 29 27 23 24 24 31 45 42 22 16 9 10 14 16 16 22 25 20 17 25 23 23 42 44 65 73
84 83 85 85 83 88 82 82 85 84 91 95 91 64 54 51 60 59 60 43 40 28 26 23 25 34 46 52 62 53 50 36 34 16 57 24 22 20 19 18 29 34 31 28 29 44 51
83 83 83 83 83 84 82 82 82 85 92 97 93 83 58 57 51 49 48 44 38 42 38 49 55 55 53 59 62 55 61 53 37 54 41 14 18 19 17 18 29 26 23 27 32 37 36
84 83 82 83 83 83 82 82 84 87 92 96 85 81 80 76 72 81 71 75 61 58 64 53 54 52 63 65 48 51 60 64 66 57 57 36 19 25 30 30 35 28 38 31 38 46 47
83 82 83 83 83 82 82 82 89 90 91 96 90 86 79 76 79 81 83 66 50 59 57 57 53 57 55 60 58 74 77 81 83 82 68 62 21 22 31 31 35 31 53 53 43 49 50
81 82 81 83 82 83 83 82 87 90 89 89 99 97 87 70 77 76 66 59 57 60 64 60 62 70 62 69 70 83 71 75 68 67 83 64 58 34 23 36 34 28 54 52 53 64 70
81 81 82 82 84 84 85 82 82 88 89 86 98 97 94 86 74 65 66 65 65 75 72 59 53 59 70 67 72 71 72 61 68 66 71 76 63 59 32 31 42 49 52 61 53 52 66
80 81 81 81 81 84 81 81 81 82 88 95 99 98 97 92 70 59 61 71 78 84 79 67 62 77 77 88 83 87 80 85 76 67 75 78 70 54 61 48 43 47 56 63 65 64 52
83 84 85 84 81 81 81 83 83 81 82 82 96 95 97 95 82 76 65 65 74 82 82 88 70 79 81 94 96 93 91 89 86 83 82 88 91 77 81 74 67 67 70 69 69 55 62
82 82 85 84 80 83 82 83 82 82 82 84 97 96 94 96 91 66 53 62 59 77 77 74 86 85 92 94 93 96 95 93 92 89 87 78 87 93 92 83 82 77 65 61 65 69 67
85 86 87 87 81 82 83 84 84 83 82 81 97 86 84 95 76 66 51 44 45 46 57 68 78 79 72 96 97 97 95 98 90 93 92 88 88 95 88 72 72 77 78 78 77 68 63
Wind_Speed
17 16 16 15 16 14 16 15 16 15 15 15 15 15 15 15 15 15 14 14 14 14 12 10 10 11 3 2 11 6 5 8 8 8 6 3 2 3 3 6 8 7 7 6 2 12 7
17 17 17 16 14 16 16 16 17 16 16 16 15 15 15 15 15 15 15 15 15 13 10 9 9 9 0 3 5 4 4 6 5 6 6 5 3 3 3 4 3 6 6 5 6 9 10
15 15 16 17 16 16 15 16 16 16 16 16 16 16 16 16 16 16 17 15 14 12 7 7 7 3 0 15 1 7 6 1 5 4 6 4 3 2 5 6 5 7 3 3 2 5 6
14 15 16 16 17 16 15 17 16 16 17 15 16 17 17 17 17 17 17 16 15 9 6 6 5 2 9 5 2 8 3 4 4 5 1 4 4 2 3 5 6 5 5 3 3 7 7
15 14 14 15 15 15 14 14 16 16 17 16 16 15 17 17 17 16 16 20 11 6 5 4 1 1 11 4 3 4 6 3 6 2 1 4 4 4 3 3 6 6 0 3 8 5 9
17 17 16 16 17 17 16 15 15 17 17 16 16 15 17 17 17 15 18 12 2 1 3 4 4 3 6 2 4 4 4 4 3 4 2 3 3 2 3 5 3 2 4 5 8 2 4
17 17 17 16 19 17 18 17 16 17 18 17 15 15 16 16 15 11 10 4 3 2 2 10 5 4 4 7 3 2 5 4 3 5 4 2 4 5 7 5 6 4 1 9 7 3 3
18 18 17 17 17 15 15 18 18 16 17 18 16 15 14 16 14 6 2 2 2 3 7 12 9 8 6 3 4 4 5 4 4 4 3 4 6 9 2 3 3 3 4 10 5 5 4
18 18 17 17 16 16 16 16 19 19 15 16 17 17 14 14 13 2 2 7 4 10 1 8 6 6 6 9 7 7 8 5 4 5 5 7 6 4 3 4 4 8 4 5 7 3 4
17 18 17 17 17 16 16 17 18 19 19 17 15 15 13 11 3 2 5 3 6 7 5 7 4 9 5 5 4 8 8 7 1 9 7 5 4 3 5 6 6 7 6 9 10 5 4
18 18 18 18 17 17 19 18 18 20 18 17 17 14 10 5 5 3 0 7 3 3 2 3 4 1 3 10 1 2 4 5 7 6 7 8 3 5 6 13 4 12 5 7 4 5 4
17 18 18 19 20 20 19 21 20 20 21 18 17 12 8 1 3 8 9 7 3 7 6 2 4 5 5 0 1 2 5 3 4 2 1 7 1 5 7 6 7 11 3 6 5 5 3
18 17 18 19 21 20 20 19 22 22 21 20 16 10 5 3 4 3 5 3 6 4 6 3 4 4 3 4 2 3 5 5 5 5 4 6 5 4 4 5 2 4 6 4 5 5 5
18 17 18 19 19 21 19 22 23 24 23 23 19 9 7 9 3 5 2 6 3 3 6 5 3 4 6 5 4 3 4 4 1 5 3 5 8 5 5 8 10 6 9 8 5 3 3
17 18 18 18 18 21 20 20 23 26 25 27 8 2 2 5 12 1 5 3 7 4 4 7 3 4 2 3 4 4 7 7 9 9 8 6 7 4 2 2 7 3 3 4 9 4 3
20 17 18 19 18 22 20 22 24 26 28 24 1 1 3 4 12 2 6 4 4 4 7 5 5 1 4 2 4 7 9 7 6 11 7 5 2 4 5 2 0 6 7 3 4 4 4
19 19 18 19 18 22 22 23 23 23 26 12 1 3 4 2 2 6 3 6 5 5 8 7 5 5 7 8 9 5 7 5 11 8 10 7 4 7 3 3 5 3 2 6 6 6 7
20 19 19 19 19 22 23 24 22 21 24 6 3 4 1 0 5 2 2 5 4 3 4 7 4 8 5 3 4 9 12 11 13 11 12 9 6 6 12 6 3 4 9 7 7 6 1
20 19 21 21 20 22 23 24 22 20 15 3 3 1 2 3 2 2 5 5 4 5 5 5 5 4 1 2 1 2 2 7 7 10 12 9 3 3 12 10 3 4 5 4 7 5 6
21 20 20 20 21 20 23 24 22 25 21 4 2 3 4 3 1 4 2 6 4 5 7 5 5 3 3 4 2 2 7 4 7 6 4 12 5 9 11 10 4 2 2 2 7 5 5
20 21 21 21 21 21 22 23 24 26 17 2 1 0 3 3 5 6 4 3 7 5 3 3 0 4 3 3 1 4 2 6 5 9 4 10 10 8 7 5 6 6 5 5 4 6 7
20 21 21 21 21 21 22 22 22 23 12 1 2 3 4 2 3 2 5 1 3 4 1 5 4 2 2 2 6 5 4 3 3 9 7 5 4 6 3 4 7 3 4 4 3 3 6
20 20 20 21 21 21 21 21 18 18 12 3 3 3 3 3 3 2 3 4 4 3 4 3 2 4 5 3 1 6 4 5 1 2 3 3 5 4 5 1 2 4 2 2 2 3 4
20 20 20 21 21 20 20 20 16 13 10 2 3 1 2 4 1 2 2 3 4 4 3 1 1 1 3 3 6 3 5 8 6 6 2 2 3 3 3 4 3 5 3 2 5 2 3
19 19 20 20 19 19 19 18 17 13 10 3 2 0 1 3 3 4 6 5 4 4 3 3 3 2 3 5 4 5 4 5 3 3 8 5 5 4 5 4 0 4 5 1 4 5 3
19 20 20 20 19 18 19 18 17 15 12 1 3 2 1 2 5 1 4 2 3 3 1 2 2 2 4 4 5 3 2 3 4 6 4 7 6 6 3 4 6 6 3 4 2 5 6
19 19 18 18 19 19 18 17 16 16 14 6 4 3 1 2 5 1 4 4 1 2 1 2 2 1 4 2 3 4 4 4 3 2 3 3 4 4 2 3 3 2 4 4 2 8 3
18 18 18 18 20 19 18 17 17 16 14 7 5 4 1 2 7 6 4 2 4 2 3 3 3 3 4 3 4 4 3 5 3 3 4 5 5 3 2 4 3 3 3 4 6 6 5
20 19 19 19 20 19 18 17 17 15 12 7 3 3 1 3 8 4 11 17 12 10 3 2 3 3 4 4 1 3 3 3 4 3 1 3 5 6 5 5 4 5 5 4 2 4 4
Wind_Direction
9 5 3 2 359 357 357 353 351 350 348 347 344 341 340 337 335 334 333 333 329 322 314 314 317 326 342 11 253 295 351 60 113 118 158 203 104 205 335 288 326 177 215 259 125 165 166
2 2 0 359 356 355 357 352 349 349 350 345 341 338 337 334 332 332 329 325 324 317 304 303 312 323 325 261 254 282 25 98 105 124 184 160 201 167 281 307 354 303 241 199 225 153 177
1 358 355 352 353 354 350 349 345 344 342 343 340 337 335 332 330 326 323 317 315 312 291 291 303 295 7 235 314 334 330 215 133 167 193 150 180 85 343 303 240 287 334 58 266 161 122
3 359 353 351 351 350 349 346 345 343 342 339 337 334 333 330 329 327 318 310 307 292 276 276 290 280 246 243 281 300 169 277 197 216 193 188 151 189 184 272 318 355 48 22 267 136 168
354 353 354 349 346 344 341 339 342 341 339 338 336 333 332 331 328 325 318 312 299 257 233 238 251 187 267 305 251 237 172 203 129 161 222 263 145 199 3 50 1 3 57 277 312 179 151
353 351 347 350 346 343 341 339 336 339 337 336 335 331 330 329 330 328 321 311 149 277 214 201 253 339 277 328 243 171 196 180 129 129 148 149 71 100 38 71 229 2 347 347 280 225 50
343 342 344 341 346 341 340 337 335 333 336 335 331 328 329 327 327 340 356 5 26 331 246 194 193 258 282 297 278 231 151 110 120 72 147 109 95 232 229 180 210 277 286 310 263 61 112
344 341 339 340 341 338 334 334 333 330 329 332 330 327 321 322 319 331 340 221 202 241 301 227 233 271 267 63 312 291 108 133 133 167 126 26 204 235 245 247 289 297 312 288 298 233 133
339 338 338 337 338 338 335 329 331 330 325 324 329 325 316 317 321 348 215 238 273 11 12 290 181 208 207 149 202 247 136 151 142 153 163 170 213 139 197 296 302 286 232 236 210 73 48
338 337 337 336 337 336 333 331 330 328 327 327 318 318 316 319 332 318 246 261 289 174 48 270 228 265 161 162 258 196 167 136 169 181 150 228 264 244 290 276 173 282 232 246 244 109 201
340 339 338 335 338 336 336 332 325 326 325 321 317 310 314 311 319 234 144 344 337 57 360 196 211 25 140 152 165 220 165 59 162 168 110 238 199 185 215 237 148 245 309 241 238 115 69
341 339 339 339 341 339 335 334 330 326 325 318 313 303 310 245 215 246 308 312 89 45 257 236 133 162 108 159 26 128 129 70 170 173 133 224 322 175 221 266 202 260 211 34 55 105 78
342 338 339 340 341 339 336 330 331 329 325 319 308 278 225 209 222 299 286 76 57 152 320 189 180 145 121 151 209 111 143 155 157 122 296 337 277 255 182 284 182 124 57 347 1 15 213
342 341 342 341 340 340 336 334 334 332 327 325 310 260 217 223 245 344 89 59 167 234 256 299 118 84 162 146 203 137 96 191 264 99 107 176 318 186 174 188 224 200 161 151 197 195 245
343 344 343 339 341 342 338 334 337 337 334 332 333 99 225 241 212 332 81 91 213 227 328 341 32 96 244 220 156 124 180 196 204 165 174 151 269 296 146 199 142 241 200 196 102 36 76
347 344 342 341 342 345 341 340 341 340 338 335 332 194 259 113 149 101 76 238 250 241 321 22 53 76 197 219 159 151 177 200 218 181 153 215 306 259 293 191 342 164 164 89 3 127 231
349 344 340 343 342 346 346 344 343 340 336 338 354 57 324 156 167 51 161 239 276 272 5 356 335 269 212 204 169 189 214 261 201 190 158 145 124 260 96 189 223 350 346 45 114 123 164
344 346 344 345 345 347 347 347 344 343 339 24 339 59 314 293 58 33 177 203 290 306 321 262 213 217 262 230 239 197 200 216 191 146 168 183 159 233 230 249 244 204 206 154 130 231 150
343 345 347 348 347 347 348 348 345 346 353 318 73 113 6 51 146 270 281 271 235 263 228 227 252 227 295 149 266 241 241 255 194 160 182 171 230 301 327 349 16 215 222 142 113 98 192
342 344 345 346 348 345 349 349 347 347 344 153 101 88 344 39 143 155 262 268 263 298 252 221 262 225 110 19 15 18 341 324 327 207 43 135 141 173 215 206 179 281 247 132 118 115 182
343 344 345 346 348 349 351 351 352 352 355 15 28 73 178 216 277 230 160 298 332 315 316 333 304 30 180 131 354 34 319 313 353 356 108 152 201 172 232 224 191 221 219 159 182 176 157
343 344 345 347 348 349 352 353 352 353 359 9 61 42 351 253 311 316 156 195 230 283 218 332 82 35 94 232 195 195 146 339 91 327 16 326 219 138 227 199 214 251 67 96 135 104 278
343 344 344 346 347 347 350 353 352 3 1 23 323 325 119 272 323 103 213 236 254 245 199 236 313 348 38 360 3 348 87 137 147 92 312 353 131 101 217 183 160 318 208 218 262 172 145
341 342 343 344 344 345 347 351 354 6 27 306 271 340 42 271 209 197 232 247 271 264 222 205 220 94 195 229 114 85 14 85 28 5 247 184 84 79 144 51 209 246 258 229 129 79 354
340 341 340 341 341 341 343 347 350 353 3 314 275 134 114 270 243 267 233 229 289 286 247 261 294 191 225 64 52 32 344 45 26 324 340 306 116 80 130 165 44 312 312 154 155 247 205
340 338 338 338 339 340 341 342 344 348 354 3 252 202 172 128 244 357 287 222 228 255 12 149 315 285 51 75 64 102 172 0 294 306 290 349 57 114 152 145 175 240 309 1 292 299 212
336 335 335 335 337 337 338 338 337 342 346 335 272 222 153 215 270 119 214 251 179 97 260 286 335 334 54 84 102 155 186 157 223 250 302 14 2 117 143 122 277 294 345 324 178 241 151
335 334 333 336 338 335 333 333 333 336 340 347 274 229 138 250 272 232 241 267 332 131 151 254 57 338 50 77 141 191 156 210 151 236 224 182 132 185 119 106 193 239 44 141 250 323 338
331 331 330 330 334 333 331 329 328 328 332 339 283 320 34 199 252 270 250 247 227 227 98 273 208 189 176 108 225 120 167 138 143 250 222 235 185 185 172 213 176 204 192 249 255 309 324